Time,TemperatureF,DewpointF,PressureIn,WindDirection,WindDirectionDegrees,WindSpeedMPH,WindSpeedGustMPH,Humidity,HourlyPrecipIn,Conditions,Clouds,dailyrainin,SolarRadiationWatts/m^2,SoftwareType,DateUTC
2013-03-03 00:00:00,31.9,19.2,29.62,NNE,16,5.8,5.8,59,0.00,OVC,,0.00,0.0,WeatherDisplay:10.37,2013-03-03 05:00:00,
2013-03-03 00:01:00,31.9,19.2,29.62,NW,320,5.8,5.8,59,0.00,OVC,,0.00,0.0,WeatherDisplay:10.37,2013-03-03 05:01:00,
2013-03-03 00:06:00,31.8,19.1,29.62,NW,323,3.5,3.5,59,0.00,OVC,,0.00,0.0,WeatherDisplay:10.37,2013-03-03 05:06:00,
2013-03-03 00:11:00,31.8,19.1,29.62,NNW,346,4.0,4.0,59,0.00,OVC,,0.00,0.0,WeatherDisplay:10.37,2013-03-03 05:11:00,
2013-03-03 00:16:00,31.8,19.5,29.62,NNW,346,2.0,2.0,60,0.00,OVC,,0.00,0.0,WeatherDisplay:10.37,2013-03-03 05:16:00,
2013-03-03 00:17:00,31.8,19.1,29.62,WNW,291,4.6,4.6,59,0.00,OVC,,0.00,0.0,WeatherDisplay:10.37,2013-03-03 05:17:00,
2013-03-03 00:22:00,31.8,19.5,29.62,WNW,298,4.6,4.6,60,0.00,OVC,,0.00,0.0,WeatherDisplay:10.37,2013-03-03 05:22:00,
2013-03-03 00:23:00,31.8,19.1,29.62,NNW,346,8.1,8.1,59,0.00,OVC,,0.00,0.0,WeatherDisplay:10.37,2013-03-03 05:23:00,
2013-03-03 00:28:00,31.8,19.5,29.62,NW,311,3.5,3.5,60,0.00,OVC,,0.00,0.0,WeatherDisplay:10.37,2013-03-03 05:28:00,
2013-03-03 00:33:00,31.6,18.9,29.62,NW,312,1.0,1.0,59,0.00,OVC,,0.00,0.0,WeatherDisplay:10.37,2013-03-03 05:33:00,
2013-03-03 00:38:00,31.6,18.9,29.62,West,277,3.5,3.5,59,0.00,OVC,,0.00,0.0,WeatherDisplay:10.37,2013-03-03 05:38:00,
2013-03-03 00:43:00,31.5,18.8,29.62,West,271,3.0,3.0,59,0.00,OVC,,0.00,0.0,WeatherDisplay:10.37,2013-03-03 05:43:00,
2013-03-03 00:48:00,31.5,18.8,29.62,NNW,346,2.3,0.0,59,0.00,OVC,,0.00,0.0,WeatherDisplay:10.37,2013-03-03 05:48:00,
2013-03-03 00:53:00,31.3,18.6,29.62,WNW,302,5.8,5.8,59,0.00,OVC,,0.00,0.0,WeatherDisplay:10.37,2013-03-03 05:53:00,
2013-03-03 00:58:00,31.3,19.0,29.62,NNW,344,8.1,8.1,60,0.00,OVC,,0.00,0.0,WeatherDisplay:10.37,2013-03-03 05:58:00,
2013-03-03 01:03:00,31.3,19.0,29.62,WNW,294,3.0,3.0,60,0.00,OVC,,0.00,0.0,WeatherDisplay:10.37,2013-03-03 06:03:00,
2013-03-03 01:08:00,31.2,18.9,29.62,WSW,254,6.9,6.9,60,0.00,OVC,,0.00,0.0,WeatherDisplay:10.37,2013-03-03 06:08:00,
2013-03-03 01:13:00,31.2,18.9,29.62,WNW,291,2.3,2.3,60,0.00,OVC,,0.00,0.0,WeatherDisplay:10.37,2013-03-03 06:13:00,
2013-03-03 01:18:00,31.2,18.9,29.62,NNW,332,4.6,4.6,60,0.00,OVC,,0.00,0.0,WeatherDisplay:10.37,2013-03-03 06:18:00,
2013-03-03 01:23:00,31.0,18.7,29.62,South,178,9.2,9.2,60,0.00,OVC,,0.00,0.0,WeatherDisplay:10.37,2013-03-03 06:23:00,
2013-03-03 01:28:00,31.0,18.7,29.62,WNW,299,5.0,5.0,60,0.00,OVC,,0.00,0.0,WeatherDisplay:10.37,2013-03-03 06:28:00,
2013-03-03 01:33:00,31.0,18.7,29.62,NW,315,5.8,5.8,60,0.00,OVC,,0.00,0.0,WeatherDisplay:10.37,2013-03-03 06:33:00,
2013-03-03 01:38:00,30.9,19.0,29.62,NNW,336,2.3,2.3,61,0.00,OVC,,0.00,0.0,WeatherDisplay:10.37,2013-03-03 06:38:00,
2013-03-03 01:43:00,30.9,19.0,29.62,North,357,2.3,2.3,61,0.00,OVC,,0.00,0.0,WeatherDisplay:10.37,2013-03-03 06:43:00,
2013-03-03 01:48:00,30.7,18.8,29.62,WNW,291,5.8,5.8,61,0.00,OVC,,0.00,0.0,WeatherDisplay:10.37,2013-03-03 06:48:00,
2013-03-03 01:53:00,30.7,18.8,29.62,NNW,340,9.2,9.2,61,0.00,OVC,,0.00,0.0,WeatherDisplay:10.37,2013-03-03 06:53:00,
2013-03-03 01:58:00,30.6,19.1,29.62,West,277,2.0,2.0,62,0.00,OVC,,0.00,0.0,WeatherDisplay:10.37,2013-03-03 06:58:00,
2013-03-03 02:03:00,30.6,19.1,29.61,SW,216,5.8,5.8,62,0.00,OVC,,0.00,0.0,WeatherDisplay:10.37,2013-03-03 07:03:00,
2013-03-03 02:08:00,30.4,19.3,29.61,SSW,208,3.5,3.5,63,0.00,OVC,,0.00,0.0,WeatherDisplay:10.37,2013-03-03 07:08:00,
2013-03-03 02:13:00,30.4,19.3,29.61,North,359,4.6,4.6,63,0.00,OVC,,0.00,0.0,WeatherDisplay:10.37,2013-03-03 07:13:00,
2013-03-03 02:18:00,30.3,19.2,29.61,NNW,332,3.5,3.8,63,0.00,OVC,,0.00,0.0,WeatherDisplay:10.37,2013-03-03 07:18:00,
2013-03-03 02:23:00,30.1,19.0,29.61,SE,128,5.8,5.8,63,0.00,OVC,,0.00,0.0,WeatherDisplay:10.37,2013-03-03 07:23:00,
2013-03-03 02:28:00,30.0,18.9,29.61,NNW,332,5.8,5.8,63,0.00,OVC,,0.00,0.0,WeatherDisplay:10.37,2013-03-03 07:28:00,
2013-03-03 02:33:00,29.8,19.1,29.61,WNW,292,1.1,1.1,64,0.00,OVC,,0.00,0.0,WeatherDisplay:10.37,2013-03-03 07:33:00,
2013-03-03 02:38:00,29.8,19.1,29.61,WSW,244,10.0,10.0,64,0.00,OVC,,0.00,0.0,WeatherDisplay:10.37,2013-03-03 07:38:00,
2013-03-03 02:43:00,29.7,18.6,29.61,NW,322,5.0,5.0,63,0.00,OVC,,0.00,0.0,WeatherDisplay:10.37,2013-03-03 07:43:00,
2013-03-03 02:48:00,29.5,18.4,29.61,WNW,292,5.8,5.8,63,0.00,OVC,,0.00,0.0,WeatherDisplay:10.37,2013-03-03 07:48:00,
2013-03-03 02:53:00,29.5,18.1,29.61,NNW,340,4.6,4.6,62,0.00,OVC,,0.00,0.0,WeatherDisplay:10.37,2013-03-03 07:53:00,
2013-03-03 02:58:00,29.4,18.0,29.61,WNW,302,6.9,6.9,62,0.00,OVC,,0.00,0.0,WeatherDisplay:10.37,2013-03-03 07:58:00,
2013-03-03 03:03:00,29.3,17.9,29.61,NNW,329,5.0,5.0,62,0.00,OVC,,0.00,0.0,WeatherDisplay:10.37,2013-03-03 08:03:00,
2013-03-03 03:08:00,29.1,17.3,29.61,WNW,296,3.5,3.5,61,0.00,OVC,,0.00,0.0,WeatherDisplay:10.37,2013-03-03 08:08:00,
2013-03-03 03:13:00,29.1,17.3,29.61,NNW,337,3.5,3.5,61,0.00,OVC,,0.00,0.0,WeatherDisplay:10.37,2013-03-03 08:13:00,
2013-03-03 03:18:00,29.0,17.2,29.60,NNW,342,2.3,2.3,61,0.00,SCT,,0.00,0.0,WeatherDisplay:10.37,2013-03-03 08:18:00,
2013-03-03 03:23:00,28.8,17.0,29.60,North,350,4.6,4.6,61,0.00,SCT,,0.00,0.0,WeatherDisplay:10.37,2013-03-03 08:23:00,
2013-03-03 03:28:00,28.8,17.4,29.60,NNW,346,3.5,3.5,62,0.00,SCT,,0.00,0.0,WeatherDisplay:10.37,2013-03-03 08:28:00,
2013-03-03 03:33:00,28.7,16.9,29.60,WNW,296,6.9,6.9,61,0.00,SCT,,0.00,0.0,WeatherDisplay:10.37,2013-03-03 08:33:00,
2013-03-03 03:38:00,28.7,16.9,29.60,NW,305,4.6,4.6,61,0.00,SCT,,0.00,0.0,WeatherDisplay:10.37,2013-03-03 08:38:00,
2013-03-03 03:43:00,28.5,17.1,29.60,WNW,291,6.9,6.9,62,0.00,SCT,,0.00,0.0,WeatherDisplay:10.37,2013-03-03 08:43:00,
2013-03-03 03:48:00,28.5,17.1,29.60,North,359,5.8,5.8,62,0.00,SCT,,0.00,0.0,WeatherDisplay:10.37,2013-03-03 08:48:00,
2013-03-03 03:53:00,28.4,17.0,29.60,NW,315,1.1,1.1,62,0.00,SCT,,0.00,0.0,WeatherDisplay:10.37,2013-03-03 08:53:00,
2013-03-03 03:58:00,28.4,17.0,29.60,NW,326,4.0,4.0,62,0.00,SCT,,0.00,0.0,WeatherDisplay:10.37,2013-03-03 08:58:00,
2013-03-03 04:03:00,28.2,16.8,29.61,NW,326,3.5,3.5,62,0.00,SCT,,0.00,0.0,WeatherDisplay:10.37,2013-03-03 09:03:00,
2013-03-03 04:08:00,28.2,16.5,29.61,North,356,5.8,5.8,61,0.00,SCT,,0.00,0.0,WeatherDisplay:10.37,2013-03-03 09:08:00,
2013-03-03 04:13:00,28.2,16.1,29.61,NNW,346,5.8,5.8,60,0.00,SCT,,0.00,0.0,WeatherDisplay:10.37,2013-03-03 09:13:00,
2013-03-03 04:18:00,28.2,15.7,29.62,North,0,1.1,1.1,59,0.00,SCT,,0.00,0.0,WeatherDisplay:10.37,2013-03-03 09:18:00,
2013-03-03 04:23:00,28.1,15.2,29.62,North,350,6.9,6.9,58,0.00,SCT,,0.00,0.0,WeatherDisplay:10.37,2013-03-03 09:23:00,
2013-03-03 04:28:00,28.1,15.2,29.62,NW,308,13.0,13.0,58,0.00,SCT,,0.00,0.0,WeatherDisplay:10.37,2013-03-03 09:28:00,
2013-03-03 04:33:00,28.1,15.2,29.62,NNW,346,8.1,8.1,58,0.00,SCT,,0.00,0.0,WeatherDisplay:10.37,2013-03-03 09:33:00,
2013-03-03 04:38:00,27.9,15.0,29.62,North,356,8.1,8.1,58,0.00,SCT,,0.00,0.0,WeatherDisplay:10.37,2013-03-03 09:38:00,
2013-03-03 04:43:00,27.9,15.0,29.62,North,3,11.5,11.5,58,0.00,SCT,,0.00,0.0,WeatherDisplay:10.37,2013-03-03 09:43:00,
2013-03-03 04:48:00,27.9,14.6,29.62,West,280,5.0,5.0,57,0.00,SCT,,0.00,0.0,WeatherDisplay:10.37,2013-03-03 09:48:00,
2013-03-03 04:53:00,27.8,14.5,29.62,North,359,2.3,2.6,57,0.00,SCT,,0.00,0.0,WeatherDisplay:10.37,2013-03-03 09:53:00,
2013-03-03 04:58:00,27.8,14.5,29.62,NW,308,8.1,8.1,57,0.00,SCT,,0.00,0.0,WeatherDisplay:10.37,2013-03-03 09:58:00,
2013-03-03 05:03:00,27.8,14.9,29.62,WNW,288,3.5,3.5,58,0.00,SCT,,0.00,0.0,WeatherDisplay:10.37,2013-03-03 10:03:00,
2013-03-03 05:08:00,27.6,14.7,29.62,NNW,339,6.9,6.9,58,0.00,SCT,,0.00,0.0,WeatherDisplay:10.37,2013-03-03 10:08:00,
2013-03-03 05:13:00,27.6,14.7,29.62,NW,306,3.5,3.5,58,0.00,SCT,,0.00,0.0,WeatherDisplay:10.37,2013-03-03 10:13:00,
2013-03-03 05:18:00,27.6,15.1,29.62,NNW,330,3.5,3.5,59,0.00,SCT,,0.00,0.0,WeatherDisplay:10.37,2013-03-03 10:18:00,
2013-03-03 05:23:00,27.5,15.0,29.62,NNW,328,2.3,0.0,59,0.00,SCT,,0.00,0.0,WeatherDisplay:10.37,2013-03-03 10:23:00,
2013-03-03 05:28:00,27.5,15.0,29.62,North,7,3.5,3.5,59,0.00,SCT,,0.00,0.0,WeatherDisplay:10.37,2013-03-03 10:28:00,
2013-03-03 05:33:00,27.5,15.0,29.62,North,356,3.5,3.5,59,0.00,SCT,,0.00,0.0,WeatherDisplay:10.37,2013-03-03 10:33:00,
2013-03-03 05:38:00,27.3,15.2,29.62,NW,322,2.3,2.3,60,0.00,SCT,,0.00,0.0,WeatherDisplay:10.37,2013-03-03 10:38:00,
2013-03-03 05:43:00,27.3,15.2,29.62,West,272,1.1,0.0,60,0.00,SCT,,0.00,0.0,WeatherDisplay:10.37,2013-03-03 10:43:00,
2013-03-03 05:48:00,27.3,15.2,29.62,NNW,337,4.6,4.6,60,0.00,SCT,,0.00,0.0,WeatherDisplay:10.37,2013-03-03 10:48:00,
2013-03-03 05:54:00,27.2,15.1,29.62,NW,318,1.1,1.1,60,0.00,SCT,,0.00,0.0,WeatherDisplay:10.37,2013-03-03 10:54:00,
2013-03-03 05:59:00,27.2,15.1,29.62,WNW,284,1.0,1.0,60,0.00,SCT,,0.00,0.0,WeatherDisplay:10.37,2013-03-03 10:59:00,
2013-03-03 06:04:00,27.0,15.3,29.62,WNW,299,3.0,3.0,61,0.00,SCT,,0.00,0.0,WeatherDisplay:10.37,2013-03-03 11:04:00,
2013-03-03 06:10:00,27.0,15.3,29.62,WNW,299,2.0,2.0,61,0.00,SCT,,0.00,0.0,WeatherDisplay:10.37,2013-03-03 11:10:00,
2013-03-03 06:15:00,27.0,15.3,29.62,WNW,292,1.1,1.1,61,0.00,SCT,,0.00,0.0,WeatherDisplay:10.37,2013-03-03 11:15:00,
2013-03-03 06:20:00,26.9,15.2,29.62,WNW,302,3.5,3.5,61,0.00,SCT,,0.00,0.0,WeatherDisplay:10.37,2013-03-03 11:20:00,
2013-03-03 06:25:00,26.9,15.6,29.62,NW,323,3.5,3.5,62,0.00,SCT,,0.00,0.0,WeatherDisplay:10.37,2013-03-03 11:25:00,
2013-03-03 06:30:00,26.9,15.6,29.63,North,356,3.5,3.5,62,0.00,SCT,,0.00,0.0,WeatherDisplay:10.37,2013-03-03 11:30:00,
2013-03-03 06:35:00,26.9,15.6,29.63,NW,308,2.3,0.0,62,0.00,SCT,,0.00,0.0,WeatherDisplay:10.37,2013-03-03 11:35:00,
2013-03-03 06:40:00,26.9,15.6,29.63,NW,305,3.5,3.5,62,0.00,SCT,,0.00,5.0,WeatherDisplay:10.37,2013-03-03 11:40:00,
2013-03-03 06:45:00,26.9,15.6,29.62,North,0,2.0,2.0,62,0.00,SCT,,0.00,9.0,WeatherDisplay:10.37,2013-03-03 11:45:00,
2013-03-03 06:50:00,26.9,15.6,29.62,North,3,1.1,1.1,62,0.00,SCT,,0.00,11.0,WeatherDisplay:10.37,2013-03-03 11:50:00,
2013-03-03 06:55:00,26.9,15.6,29.62,NW,320,6.9,6.9,62,0.00,SCT,,0.00,12.0,WeatherDisplay:10.37,2013-03-03 11:55:00,
2013-03-03 07:00:00,26.9,15.6,29.63,WNW,284,3.5,3.5,62,0.00,SCT,,0.00,18.0,WeatherDisplay:10.37,2013-03-03 12:00:00,
2013-03-03 07:05:00,27.0,15.7,29.63,WNW,282,5.8,5.8,62,0.00,SCT,,0.00,35.0,WeatherDisplay:10.37,2013-03-03 12:05:00,
2013-03-03 07:10:00,27.2,15.9,29.63,North,356,4.6,4.6,62,0.00,SCT,,0.00,42.0,WeatherDisplay:10.37,2013-03-03 12:10:00,
2013-03-03 07:15:00,27.6,15.9,29.63,WNW,289,5.8,5.8,61,0.00,SCT,,0.00,97.0,WeatherDisplay:10.37,2013-03-03 12:15:00,
2013-03-03 07:20:00,27.9,15.8,29.63,NW,313,3.5,3.5,60,0.00,SCT,,0.00,86.0,WeatherDisplay:10.37,2013-03-03 12:20:00,
2013-03-03 07:25:00,28.5,16.4,29.63,WNW,301,2.3,2.3,60,0.00,SCT,,0.00,86.0,WeatherDisplay:10.37,2013-03-03 12:25:00,
2013-03-03 07:30:00,28.8,16.3,29.63,NW,313,4.6,0.0,59,0.00,SCT,,0.00,91.0,WeatherDisplay:10.37,2013-03-03 12:30:00,
2013-03-03 07:35:00,29.3,16.3,29.63,WNW,302,2.3,2.3,58,0.00,SCT,,0.00,88.0,WeatherDisplay:10.37,2013-03-03 12:35:00,
2013-03-03 07:40:00,29.4,16.0,29.63,NNW,347,4.6,4.6,57,0.00,SCT,,0.00,44.0,WeatherDisplay:10.37,2013-03-03 12:40:00,
2013-03-03 07:45:00,29.5,15.7,29.63,WSW,250,2.3,2.3,56,0.00,SCT,,0.00,130.0,WeatherDisplay:10.37,2013-03-03 12:45:00,
2013-03-03 07:50:00,29.8,15.6,29.63,West,281,4.6,4.6,55,0.00,SCT,,0.00,135.0,WeatherDisplay:10.37,2013-03-03 12:50:00,
2013-03-03 07:55:00,30.0,15.8,29.63,WNW,292,3.5,3.5,55,0.00,SCT,,0.00,139.0,WeatherDisplay:10.37,2013-03-03 12:55:00,
2013-03-03 08:00:00,30.4,15.7,29.64,SW,223,5.8,5.8,54,0.00,SCT,,0.00,120.0,WeatherDisplay:10.37,2013-03-03 13:00:00,
2013-03-03 08:05:00,30.7,16.0,29.64,NW,313,2.3,2.3,54,0.00,SCT,,0.00,114.0,WeatherDisplay:10.37,2013-03-03 13:05:00,
2013-03-03 08:11:00,31.0,15.8,29.64,ENE,66,12.0,12.0,53,0.00,SCT,,0.00,158.0,WeatherDisplay:10.37,2013-03-03 13:11:00,
2013-03-03 08:16:00,31.3,15.7,29.64,WNW,284,11.5,11.5,52,0.00,SCT,,0.00,232.0,WeatherDisplay:10.37,2013-03-03 13:16:00,
2013-03-03 08:21:00,31.6,16.0,29.64,WNW,295,1.1,1.1,52,0.00,SCT,,0.00,276.0,WeatherDisplay:10.37,2013-03-03 13:21:00,
2013-03-03 08:26:00,32.4,15.8,29.64,NW,305,3.5,3.5,50,0.00,SCT,,0.00,211.0,WeatherDisplay:10.37,2013-03-03 13:26:00,
2013-03-03 08:31:00,32.8,15.7,29.63,NNW,330,12.0,12.0,49,0.00,SCT,,0.00,227.0,WeatherDisplay:10.37,2013-03-03 13:31:00,
2013-03-03 08:36:00,32.7,15.6,29.63,NE,44,8.1,8.1,49,0.00,SCT,,0.00,165.0,WeatherDisplay:10.37,2013-03-03 13:36:00,
2013-03-03 08:41:00,32.2,15.2,29.63,NNW,336,4.6,4.6,49,0.00,SCT,,0.00,155.0,WeatherDisplay:10.37,2013-03-03 13:41:00,
2013-03-03 08:46:00,31.8,15.3,29.63,NW,318,6.9,6.9,50,0.00,SCT,,0.00,187.0,WeatherDisplay:10.37,2013-03-03 13:46:00,
2013-03-03 08:51:00,31.8,15.3,29.63,NW,319,3.5,3.5,50,0.00,SCT,,0.00,232.0,WeatherDisplay:10.37,2013-03-03 13:51:00,
2013-03-03 08:56:00,32.1,15.1,29.63,NNW,336,7.0,7.0,49,0.00,SCT,,0.00,192.0,WeatherDisplay:10.37,2013-03-03 13:56:00,
2013-03-03 09:01:00,32.1,14.6,29.63,NNW,344,11.5,11.5,48,0.00,SCT,,0.00,215.0,WeatherDisplay:10.37,2013-03-03 14:01:00,
2013-03-03 09:06:00,31.9,14.4,29.63,NNW,332,9.2,9.2,48,0.00,SCT,,0.00,215.0,WeatherDisplay:10.37,2013-03-03 14:06:00,
2013-03-03 09:11:00,31.8,14.3,29.63,North,350,3.5,3.5,48,0.00,SCT,,0.00,222.0,WeatherDisplay:10.37,2013-03-03 14:11:00,
2013-03-03 09:16:00,31.8,14.8,29.63,North,353,3.5,3.5,49,0.00,BKN,,0.00,194.0,WeatherDisplay:10.37,2013-03-03 14:16:00,
2013-03-03 09:21:00,31.8,13.8,29.63,NNE,24,8.1,8.1,47,0.00,BKN,,0.00,178.0,WeatherDisplay:10.37,2013-03-03 14:21:00,
2013-03-03 09:26:00,31.6,14.1,29.63,North,352,4.6,4.6,48,0.00,BKN,,0.00,172.0,WeatherDisplay:10.37,2013-03-03 14:26:00,
2013-03-03 09:31:00,31.6,14.1,29.63,NNE,24,6.0,6.0,48,0.00,BKN,,0.00,174.0,WeatherDisplay:10.37,2013-03-03 14:31:00,
2013-03-03 09:36:00,31.6,14.1,29.63,NNW,336,6.9,6.9,48,0.00,BKN,,0.00,181.0,WeatherDisplay:10.37,2013-03-03 14:36:00,
2013-03-03 09:41:00,31.6,14.1,29.63,West,278,13.8,13.8,48,0.00,BKN,,0.00,183.0,WeatherDisplay:10.37,2013-03-03 14:41:00,
2013-03-03 09:46:00,31.6,14.1,29.63,North,352,4.6,4.6,48,0.00,BKN,,0.00,181.0,WeatherDisplay:10.37,2013-03-03 14:46:00,
2013-03-03 09:51:00,31.6,14.1,29.63,WSW,257,5.8,5.8,48,0.00,BKN,,0.00,222.0,WeatherDisplay:10.37,2013-03-03 14:51:00,
2013-03-03 09:56:00,31.8,13.8,29.63,North,354,10.4,10.4,47,0.00,BKN,,0.00,236.0,WeatherDisplay:10.37,2013-03-03 14:56:00,
2013-03-03 10:01:00,31.9,13.9,29.63,WNW,302,6.0,6.0,47,0.00,BKN,,0.00,290.0,WeatherDisplay:10.37,2013-03-03 15:01:00,
2013-03-03 10:06:00,31.9,13.9,29.63,SSE,157,8.1,8.1,47,0.00,BKN,,0.00,304.0,WeatherDisplay:10.37,2013-03-03 15:06:00,
2013-03-03 10:11:00,32.2,14.2,29.63,North,7,3.0,3.0,47,0.00,BKN,,0.00,324.0,WeatherDisplay:10.37,2013-03-03 15:11:00,
2013-03-03 10:16:00,32.5,14.0,29.62,North,356,7.0,7.0,46,0.00,OVC,,0.00,292.0,WeatherDisplay:10.37,2013-03-03 15:16:00,
2013-03-03 10:21:00,32.7,14.2,29.62,NNW,342,8.1,8.1,46,0.00,OVC,,0.00,222.0,WeatherDisplay:10.37,2013-03-03 15:21:00,
2013-03-03 10:26:00,32.7,14.2,29.62,North,0,4.6,4.6,46,0.00,OVC,,0.00,223.0,WeatherDisplay:10.37,2013-03-03 15:26:00,
2013-03-03 10:31:00,32.8,14.3,29.62,SW,215,3.5,3.5,46,0.00,OVC,,0.00,238.0,WeatherDisplay:10.37,2013-03-03 15:31:00,
2013-03-03 10:36:00,32.9,14.4,29.62,North,359,5.0,5.0,46,0.00,OVC,,0.00,252.0,WeatherDisplay:10.37,2013-03-03 15:36:00,
2013-03-03 10:41:00,32.9,13.9,29.62,NW,320,4.6,4.6,45,0.00,OVC,,0.00,259.0,WeatherDisplay:10.37,2013-03-03 15:41:00,
2013-03-03 10:46:00,33.1,14.0,29.62,West,278,10.4,10.4,45,0.00,OVC,,0.00,264.0,WeatherDisplay:10.37,2013-03-03 15:46:00,
2013-03-03 10:51:00,33.1,14.0,29.62,West,271,11.5,11.5,45,0.00,OVC,,0.00,313.0,WeatherDisplay:10.37,2013-03-03 15:51:00,
2013-03-03 10:56:00,33.2,14.1,29.62,NNW,336,10.4,10.4,45,0.00,OVC,,0.00,297.0,WeatherDisplay:10.37,2013-03-03 15:56:00,
2013-03-03 11:01:00,33.5,14.4,29.62,WSW,254,6.9,6.9,45,0.00,OVC,,0.00,357.0,WeatherDisplay:10.37,2013-03-03 16:01:00,
2013-03-03 11:06:00,33.7,14.1,29.62,West,281,11.5,11.5,44,0.00,OVC,,0.00,361.0,WeatherDisplay:10.37,2013-03-03 16:06:00,
2013-03-03 11:11:00,34.0,14.9,29.62,NW,323,4.6,4.6,45,0.00,OVC,,0.00,375.0,WeatherDisplay:10.37,2013-03-03 16:11:00,
2013-03-03 11:16:00,34.1,13.9,29.61,NNW,337,10.4,10.4,43,0.00,BKN,,0.00,352.0,WeatherDisplay:10.37,2013-03-03 16:16:00,
2013-03-03 11:21:00,34.4,14.7,29.61,North,0,3.5,3.5,44,0.00,BKN,,0.00,348.0,WeatherDisplay:10.37,2013-03-03 16:21:00,
2013-03-03 11:26:00,34.7,14.5,29.61,North,359,11.5,11.5,43,0.00,BKN,,0.00,350.0,WeatherDisplay:10.37,2013-03-03 16:26:00,
2013-03-03 11:31:00,34.7,14.5,29.62,WSW,258,9.0,9.0,43,0.00,BKN,,0.00,398.0,WeatherDisplay:10.37,2013-03-03 16:31:00,
2013-03-03 11:36:00,34.9,14.1,29.62,NNW,346,11.5,11.5,42,0.00,BKN,,0.00,419.0,WeatherDisplay:10.37,2013-03-03 16:36:00,
2013-03-03 11:41:00,35.2,14.9,29.62,ESE,113,8.1,8.1,43,0.00,BKN,,0.00,387.0,WeatherDisplay:10.37,2013-03-03 16:41:00,
2013-03-03 11:46:00,35.3,14.5,29.61,West,271,4.0,4.8,42,0.00,BKN,,0.00,373.0,WeatherDisplay:10.37,2013-03-03 16:46:00,
2013-03-03 11:51:00,35.6,14.2,29.61,West,275,11.5,11.5,41,0.00,BKN,,0.00,431.0,WeatherDisplay:10.37,2013-03-03 16:51:00,
2013-03-03 11:56:00,35.8,14.4,29.61,West,281,16.1,16.1,41,0.00,BKN,,0.00,419.0,WeatherDisplay:10.37,2013-03-03 16:56:00,
2013-03-03 12:01:00,36.0,14.5,29.60,SW,234,6.9,6.9,41,0.00,BKN,,0.00,438.0,WeatherDisplay:10.37,2013-03-03 17:01:00,
2013-03-03 12:06:00,36.2,15.3,29.60,NW,326,6.9,6.9,42,0.00,BKN,,0.00,373.0,WeatherDisplay:10.37,2013-03-03 17:06:00,
2013-03-03 12:11:00,36.2,14.7,29.60,West,275,3.0,5.0,41,0.00,BKN,,0.00,348.0,WeatherDisplay:10.37,2013-03-03 17:11:00,
2013-03-03 12:16:00,36.2,14.7,29.60,NW,311,8.1,8.1,41,0.00,BKN,,0.00,333.0,WeatherDisplay:10.37,2013-03-03 17:16:00,
2013-03-03 12:21:00,36.3,14.8,29.60,NW,316,5.8,5.8,41,0.00,BKN,,0.00,343.0,WeatherDisplay:10.37,2013-03-03 17:21:00,
2013-03-03 12:26:00,36.2,15.3,29.60,WNW,302,4.6,4.6,42,0.00,BKN,,0.00,341.0,WeatherDisplay:10.37,2013-03-03 17:26:00,
2013-03-03 12:31:00,36.0,15.1,29.60,North,359,4.6,4.6,42,0.00,BKN,,0.00,380.0,WeatherDisplay:10.37,2013-03-03 17:31:00,
2013-03-03 12:36:00,36.2,15.3,29.60,WNW,301,2.3,2.3,42,0.00,BKN,,0.00,296.0,WeatherDisplay:10.37,2013-03-03 17:36:00,
2013-03-03 12:41:00,36.3,15.4,29.60,WNW,298,3.5,3.5,42,0.00,BKN,,0.00,287.0,WeatherDisplay:10.37,2013-03-03 17:41:00,
2013-03-03 12:46:00,36.5,15.6,29.59,West,274,6.0,6.0,42,0.00,BKN,,0.00,329.0,WeatherDisplay:10.37,2013-03-03 17:46:00,
2013-03-03 12:51:00,36.5,15.6,29.59,WSW,247,6.0,6.0,42,0.00,BKN,,0.00,403.0,WeatherDisplay:10.37,2013-03-03 17:51:00,
2013-03-03 12:56:00,36.5,15.0,29.59,East,97,10.4,10.4,41,0.00,BKN,,0.00,280.0,WeatherDisplay:10.37,2013-03-03 17:56:00,
2013-03-03 13:01:00,36.6,15.1,29.59,North,359,6.9,6.9,41,0.00,BKN,,0.00,280.0,WeatherDisplay:10.37,2013-03-03 18:01:00,
2013-03-03 13:06:00,37.0,14.9,29.59,NNW,342,10.0,10.0,40,0.00,BKN,,0.00,313.0,WeatherDisplay:10.37,2013-03-03 18:06:00,
2013-03-03 13:11:00,37.0,16.0,29.59,NNW,344,3.5,3.5,42,0.00,BKN,,0.00,336.0,WeatherDisplay:10.37,2013-03-03 18:11:00,
2013-03-03 13:16:00,37.2,15.1,29.58,NE,48,8.1,8.1,40,0.00,BKN,,0.00,394.0,WeatherDisplay:10.37,2013-03-03 18:16:00,
2013-03-03 13:21:00,37.2,16.2,29.58,NNW,347,5.0,5.3,42,0.00,BKN,,0.00,292.0,WeatherDisplay:10.37,2013-03-03 18:21:00,
2013-03-03 13:26:00,37.2,15.6,29.58,NNW,346,4.6,4.6,41,0.00,BKN,,0.00,220.0,WeatherDisplay:10.37,2013-03-03 18:26:00,
2013-03-03 13:31:00,37.0,15.5,29.58,NNW,328,9.2,9.2,41,0.00,BKN,,0.00,394.0,WeatherDisplay:10.37,2013-03-03 18:31:00,
2013-03-03 13:36:00,37.0,16.0,29.58,WNW,298,10.4,10.4,42,0.00,BKN,,0.00,343.0,WeatherDisplay:10.37,2013-03-03 18:36:00,
2013-03-03 13:41:00,36.9,15.4,29.58,NNW,337,6.9,6.9,41,0.00,BKN,,0.00,303.0,WeatherDisplay:10.37,2013-03-03 18:41:00,
2013-03-03 13:46:00,36.9,15.9,29.58,North,354,5.0,5.0,42,0.00,BKN,,0.00,327.0,WeatherDisplay:10.37,2013-03-03 18:46:00,
2013-03-03 13:51:00,36.9,15.9,29.58,SSW,203,6.9,6.9,42,0.00,BKN,,0.00,306.0,WeatherDisplay:10.37,2013-03-03 18:51:00,
2013-03-03 13:56:00,36.8,15.8,29.58,NW,326,6.9,6.9,42,0.00,BKN,,0.00,262.0,WeatherDisplay:10.37,2013-03-03 18:56:00,
2013-03-03 14:01:00,36.6,15.6,29.58,South,176,11.5,11.5,42,0.00,BKN,,0.00,310.0,WeatherDisplay:10.37,2013-03-03 19:01:00,
2013-03-03 14:06:00,36.5,15.6,29.58,WSW,240,4.6,4.6,42,0.00,BKN,,0.00,306.0,WeatherDisplay:10.37,2013-03-03 19:06:00,
2013-03-03 14:11:00,36.6,15.6,29.58,North,0,11.0,11.0,42,0.00,BKN,,0.00,327.0,WeatherDisplay:10.37,2013-03-03 19:11:00,
2013-03-03 14:16:00,36.9,16.5,29.58,South,179,6.9,6.9,43,0.00,BKN,,0.00,512.0,WeatherDisplay:10.37,2013-03-03 19:16:00,
2013-03-03 14:21:00,37.2,16.2,29.58,NW,308,2.3,2.3,42,0.00,BKN,,0.00,512.0,WeatherDisplay:10.37,2013-03-03 19:21:00,
2013-03-03 14:26:00,37.3,15.7,29.58,WNW,301,8.1,8.1,41,0.00,BKN,,0.00,216.0,WeatherDisplay:10.37,2013-03-03 19:26:00,
2013-03-03 14:31:00,37.0,15.5,29.58,East,100,11.5,11.5,41,0.00,BKN,,0.00,308.0,WeatherDisplay:10.37,2013-03-03 19:31:00,
2013-03-03 14:36:00,37.0,15.5,29.58,WNW,295,8.1,8.1,41,0.00,BKN,,0.00,241.0,WeatherDisplay:10.37,2013-03-03 19:36:00,
2013-03-03 14:41:00,37.0,16.0,29.58,South,189,6.0,6.0,42,0.00,BKN,,0.00,303.0,WeatherDisplay:10.37,2013-03-03 19:41:00,
2013-03-03 14:46:00,37.0,16.0,29.58,WNW,299,3.5,3.7,42,0.00,BKN,,0.00,243.0,WeatherDisplay:10.37,2013-03-03 19:46:00,
2013-03-03 14:51:00,37.0,16.0,29.58,NW,323,3.5,3.5,42,0.00,BKN,,0.00,215.0,WeatherDisplay:10.37,2013-03-03 19:51:00,
2013-03-03 14:56:00,37.0,15.5,29.58,NW,322,10.4,10.4,41,0.00,BKN,,0.00,158.0,WeatherDisplay:10.37,2013-03-03 19:56:00,
2013-03-03 15:01:00,37.0,15.5,29.57,North,350,11.5,11.5,41,0.00,BKN,,0.00,137.0,WeatherDisplay:10.37,2013-03-03 20:01:00,
2013-03-03 15:06:00,37.2,16.2,29.57,West,275,4.6,4.6,42,0.00,BKN,,0.00,167.0,WeatherDisplay:10.37,2013-03-03 20:06:00,
2013-03-03 15:11:00,37.2,15.6,29.57,NNW,339,10.0,10.0,41,0.00,BKN,,0.00,160.0,WeatherDisplay:10.37,2013-03-03 20:11:00,
2013-03-03 15:16:00,37.2,16.2,29.57,NNW,340,11.5,11.5,42,0.00,BKN,,0.00,162.0,WeatherDisplay:10.37,2013-03-03 20:16:00,
2013-03-03 15:21:00,37.3,15.7,29.57,NNW,344,11.5,11.5,41,0.00,BKN,,0.00,164.0,WeatherDisplay:10.37,2013-03-03 20:21:00,
2013-03-03 15:26:00,37.2,15.6,29.57,NNW,344,11.5,11.5,41,0.00,BKN,,0.00,137.0,WeatherDisplay:10.37,2013-03-03 20:26:00,
2013-03-03 15:31:00,37.2,15.6,29.57,NW,309,8.1,8.1,41,0.00,BKN,,0.00,146.0,WeatherDisplay:10.37,2013-03-03 20:31:00,
2013-03-03 15:36:00,37.2,15.6,29.57,NNW,335,6.9,6.9,41,0.00,BKN,,0.00,137.0,WeatherDisplay:10.37,2013-03-03 20:36:00,
2013-03-03 15:41:00,37.0,15.5,29.57,WNW,287,5.8,5.8,41,0.00,BKN,,0.00,157.0,WeatherDisplay:10.37,2013-03-03 20:41:00,
2013-03-03 15:46:00,37.0,16.0,29.57,ENE,72,3.5,3.8,42,0.00,BKN,,0.00,111.0,WeatherDisplay:10.37,2013-03-03 20:46:00,
2013-03-03 15:51:00,36.8,15.8,29.57,NNW,333,11.5,11.5,42,0.00,BKN,,0.00,132.0,WeatherDisplay:10.37,2013-03-03 20:51:00,
2013-03-03 15:56:00,36.5,15.6,29.57,NE,42,11.5,11.5,42,0.00,BKN,,0.00,95.0,WeatherDisplay:10.37,2013-03-03 20:56:00,
2013-03-03 16:01:00,36.3,15.4,29.58,North,0,10.0,10.0,42,0.00,BKN,,0.00,72.0,WeatherDisplay:10.37,2013-03-03 21:01:00,
2013-03-03 16:06:00,36.2,15.8,29.58,NW,323,13.0,13.0,43,0.00,BKN,,0.00,90.0,WeatherDisplay:10.37,2013-03-03 21:06:00,
2013-03-03 16:11:00,36.2,15.8,29.58,NW,316,4.6,4.6,43,0.00,BKN,,0.00,99.0,WeatherDisplay:10.37,2013-03-03 21:11:00,
2013-03-03 16:16:00,36.2,15.8,29.58,NW,305,8.1,8.1,43,0.00,BKN,,0.00,100.0,WeatherDisplay:10.37,2013-03-03 21:16:00,
2013-03-03 16:21:00,36.2,15.8,29.58,WNW,294,3.5,3.5,43,0.00,BKN,,0.00,104.0,WeatherDisplay:10.37,2013-03-03 21:21:00,
2013-03-03 16:26:00,36.2,15.8,29.58,WNW,296,6.0,6.0,43,0.00,BKN,,0.00,81.0,WeatherDisplay:10.37,2013-03-03 21:26:00,
2013-03-03 16:31:00,36.0,15.6,29.58,WSW,244,11.5,11.5,43,0.00,BKN,,0.00,46.0,WeatherDisplay:10.37,2013-03-03 21:31:00,
2013-03-03 16:36:00,35.9,16.1,29.58,NW,325,10.4,10.4,44,0.00,BKN,,0.00,42.0,WeatherDisplay:10.37,2013-03-03 21:36:00,
2013-03-03 16:41:00,35.9,16.1,29.58,South,189,10.4,10.4,44,0.00,BKN,,0.00,33.0,WeatherDisplay:10.37,2013-03-03 21:41:00,
2013-03-03 16:46:00,35.9,16.6,29.58,WNW,288,3.5,3.5,45,0.00,BKN,,0.00,26.0,WeatherDisplay:10.37,2013-03-03 21:46:00,
2013-03-03 16:51:00,35.9,16.6,29.58,NW,319,4.6,4.6,45,0.00,BKN,,0.00,25.0,WeatherDisplay:10.37,2013-03-03 21:51:00,
2013-03-03 16:56:00,35.8,16.5,29.58,NNW,340,3.5,3.5,45,0.00,BKN,,0.00,25.0,WeatherDisplay:10.37,2013-03-03 21:56:00,
2013-03-03 17:01:00,35.8,16.5,29.58,NE,40,5.8,5.8,45,0.00,BKN,,0.00,23.0,WeatherDisplay:10.37,2013-03-03 22:01:00,
2013-03-03 17:06:00,35.8,16.5,29.58,NW,312,6.0,6.0,45,0.00,BKN,,0.00,26.0,WeatherDisplay:10.37,2013-03-03 22:06:00,
2013-03-03 17:11:00,35.6,16.3,29.58,North,354,8.1,8.1,45,0.00,BKN,,0.00,25.0,WeatherDisplay:10.37,2013-03-03 22:11:00,
2013-03-03 17:16:00,35.5,16.2,29.58,WNW,301,10.4,10.4,45,0.00,BKN,,0.00,30.0,WeatherDisplay:10.37,2013-03-03 22:16:00,
2013-03-03 17:21:00,35.3,16.6,29.58,North,359,10.4,10.4,46,0.00,BKN,,0.00,19.0,WeatherDisplay:10.37,2013-03-03 22:21:00,
2013-03-03 17:26:00,35.2,16.5,29.58,North,349,10.4,10.4,46,0.00,BKN,,0.00,16.0,WeatherDisplay:10.37,2013-03-03 22:26:00,
2013-03-03 17:32:00,35.0,16.3,29.59,NNW,347,5.8,5.8,46,0.00,BKN,,0.00,11.0,WeatherDisplay:10.37,2013-03-03 22:32:00,
2013-03-03 17:37:00,34.9,16.7,29.59,NW,305,3.5,3.5,47,0.00,BKN,,0.00,11.0,WeatherDisplay:10.37,2013-03-03 22:37:00,
2013-03-03 17:42:00,34.9,16.7,29.59,North,352,6.9,6.9,47,0.00,BKN,,0.00,11.0,WeatherDisplay:10.37,2013-03-03 22:42:00,
2013-03-03 17:47:00,34.7,16.5,29.59,WNW,291,6.9,6.9,47,0.00,BKN,,0.00,7.0,WeatherDisplay:10.37,2013-03-03 22:47:00,
2013-03-03 17:52:00,34.6,16.9,29.59,North,356,5.8,5.8,48,0.00,BKN,,0.00,0.0,WeatherDisplay:10.37,2013-03-03 22:52:00,
2013-03-03 17:57:00,34.6,16.9,29.59,West,265,8.1,8.1,48,0.00,BKN,,0.00,0.0,WeatherDisplay:10.37,2013-03-03 22:57:00,
2013-03-03 18:02:00,34.4,16.7,29.59,WNW,292,3.0,3.0,48,0.00,BKN,,0.00,0.0,WeatherDisplay:10.37,2013-03-03 23:02:00,
2013-03-03 18:07:00,34.3,17.1,29.59,NNW,333,1.1,1.1,49,0.00,BKN,,0.00,0.0,WeatherDisplay:10.37,2013-03-03 23:07:00,
2013-03-03 18:12:00,34.3,16.6,29.59,NNW,335,4.6,4.6,48,0.00,BKN,,0.00,0.0,WeatherDisplay:10.37,2013-03-03 23:12:00,
2013-03-03 18:17:00,34.1,16.9,29.60,NW,319,3.5,3.5,49,0.00,SCT,,0.00,0.0,WeatherDisplay:10.37,2013-03-03 23:17:00,
2013-03-03 18:22:00,34.1,16.4,29.60,NNW,337,8.1,8.1,48,0.00,SCT,,0.00,0.0,WeatherDisplay:10.37,2013-03-03 23:22:00,
2013-03-03 18:27:00,34.0,16.3,29.60,WNW,284,5.8,5.8,48,0.00,SCT,,0.00,0.0,WeatherDisplay:10.37,2013-03-03 23:27:00,
2013-03-03 18:32:00,34.0,16.3,29.60,NW,322,11.5,11.5,48,0.00,SCT,,0.00,0.0,WeatherDisplay:10.37,2013-03-03 23:32:00,
2013-03-03 18:37:00,34.0,16.8,29.60,West,268,11.5,11.5,49,0.00,SCT,,0.00,0.0,WeatherDisplay:10.37,2013-03-03 23:37:00,
2013-03-03 18:42:00,33.8,16.6,29.60,NW,309,5.8,5.8,49,0.00,SCT,,0.00,0.0,WeatherDisplay:10.37,2013-03-03 23:42:00,
2013-03-03 18:47:00,33.8,16.6,29.61,WNW,282,2.3,0.0,49,0.00,SCT,,0.00,0.0,WeatherDisplay:10.37,2013-03-03 23:47:00,
2013-03-03 18:52:00,33.7,16.5,29.61,NW,306,1.1,1.1,49,0.00,SCT,,0.00,0.0,WeatherDisplay:10.37,2013-03-03 23:52:00,
2013-03-03 18:57:00,33.7,16.5,29.61,SW,219,3.5,3.5,49,0.00,SCT,,0.00,0.0,WeatherDisplay:10.37,2013-03-03 23:57:00,
2013-03-03 19:02:00,33.7,16.5,29.61,West,278,6.9,6.9,49,0.00,SCT,,0.00,0.0,WeatherDisplay:10.37,2013-03-04 00:02:00,
2013-03-03 19:07:00,33.7,16.5,29.61,NW,315,2.3,2.3,49,0.00,SCT,,0.00,0.0,WeatherDisplay:10.37,2013-03-04 00:07:00,
2013-03-03 19:12:00,33.7,16.5,29.61,NNW,339,6.9,6.9,49,0.00,SCT,,0.00,0.0,WeatherDisplay:10.37,2013-03-04 00:12:00,
2013-03-03 19:17:00,33.5,16.8,29.61,North,4,6.9,6.9,50,0.00,BKN,,0.00,0.0,WeatherDisplay:10.37,2013-03-04 00:17:00,
2013-03-03 19:22:00,33.5,16.8,29.61,WSW,254,3.5,3.5,50,0.00,BKN,,0.00,0.0,WeatherDisplay:10.37,2013-03-04 00:22:00,
2013-03-03 19:27:00,33.4,17.2,29.61,West,272,2.3,2.3,51,0.00,BKN,,0.00,0.0,WeatherDisplay:10.37,2013-03-04 00:27:00,
2013-03-03 19:32:00,33.4,17.2,29.62,North,359,11.0,11.0,51,0.00,BKN,,0.00,0.0,WeatherDisplay:10.37,2013-03-04 00:32:00,
2013-03-03 19:37:00,33.4,17.2,29.62,NNW,343,6.0,6.0,51,0.00,BKN,,0.00,0.0,WeatherDisplay:10.37,2013-03-04 00:37:00,
2013-03-03 19:42:00,33.2,17.5,29.62,SW,219,5.8,5.8,52,0.00,BKN,,0.00,0.0,WeatherDisplay:10.37,2013-03-04 00:42:00,
2013-03-03 19:47:00,33.2,17.5,29.62,North,10,10.4,10.4,52,0.00,BKN,,0.00,0.0,WeatherDisplay:10.37,2013-03-04 00:47:00,
2013-03-03 19:52:00,33.4,17.6,29.62,NW,305,5.8,5.8,52,0.00,BKN,,0.00,0.0,WeatherDisplay:10.37,2013-03-04 00:52:00,
2013-03-03 19:59:00,33.4,17.6,29.63,NNW,332,4.6,4.6,52,0.00,BKN,,0.00,0.0,WeatherDisplay:10.37,2013-03-04 00:59:00,
2013-03-03 20:04:00,33.4,18.1,29.63,WNW,289,2.3,2.3,53,0.00,BKN,,0.00,0.0,WeatherDisplay:10.37,2013-03-04 01:04:00,
2013-03-03 20:09:00,33.4,18.1,29.63,WNW,289,3.5,3.5,53,0.00,BKN,,0.00,0.0,WeatherDisplay:10.37,2013-03-04 01:09:00,
2013-03-03 20:14:00,33.4,18.1,29.62,North,0,5.8,5.8,53,0.00,BKN,,0.00,0.0,WeatherDisplay:10.37,2013-03-04 01:14:00,
2013-03-03 20:19:00,33.4,18.1,29.62,WNW,298,5.0,5.0,53,0.00,SCT,,0.00,0.0,WeatherDisplay:10.37,2013-03-04 01:19:00,
2013-03-03 20:24:00,33.2,17.9,29.62,East,82,4.6,4.6,53,0.00,SCT,,0.00,0.0,WeatherDisplay:10.37,2013-03-04 01:24:00,
2013-03-03 20:29:00,33.2,17.9,29.63,North,10,10.4,10.4,53,0.00,SCT,,0.00,0.0,WeatherDisplay:10.37,2013-03-04 01:29:00,
2013-03-03 20:34:00,33.2,17.9,29.63,West,267,3.5,3.5,53,0.00,SCT,,0.00,0.0,WeatherDisplay:10.37,2013-03-04 01:34:00,
2013-03-03 20:39:00,33.1,17.8,29.63,West,270,3.5,3.5,53,0.00,SCT,,0.00,0.0,WeatherDisplay:10.37,2013-03-04 01:39:00,
2013-03-03 20:44:00,33.1,18.2,29.64,North,359,2.3,2.3,54,0.00,SCT,,0.00,0.0,WeatherDisplay:10.37,2013-03-04 01:44:00,
2013-03-03 20:49:00,33.1,18.2,29.64,NW,311,5.8,5.8,54,0.00,SCT,,0.00,0.0,WeatherDisplay:10.37,2013-03-04 01:49:00,
2013-03-03 20:54:00,32.9,18.1,29.64,NW,308,8.1,8.1,54,0.00,SCT,,0.00,0.0,WeatherDisplay:10.37,2013-03-04 01:54:00,
2013-03-03 20:59:00,32.9,18.5,29.64,NW,306,1.1,1.1,55,0.00,SCT,,0.00,0.0,WeatherDisplay:10.37,2013-03-04 01:59:00,
2013-03-03 21:04:00,32.8,18.4,29.64,NW,305,5.0,5.0,55,0.00,SCT,,0.00,0.0,WeatherDisplay:10.37,2013-03-04 02:04:00,
2013-03-03 21:09:00,32.8,18.4,29.64,NW,322,5.8,5.8,55,0.00,SCT,,0.00,0.0,WeatherDisplay:10.37,2013-03-04 02:09:00,
2013-03-03 21:14:00,32.8,18.8,29.64,WNW,301,4.6,4.6,56,0.00,SCT,,0.00,0.0,WeatherDisplay:10.37,2013-03-04 02:14:00,
2013-03-03 21:19:00,32.8,18.8,29.64,NE,38,3.5,3.5,56,0.00,BKN,,0.00,0.0,WeatherDisplay:10.37,2013-03-04 02:19:00,
2013-03-03 21:24:00,32.8,18.8,29.64,NW,312,1.1,1.1,56,0.00,BKN,,0.00,0.0,WeatherDisplay:10.37,2013-03-04 02:24:00,
2013-03-03 21:29:00,32.7,18.7,29.64,West,271,8.1,8.1,56,0.00,BKN,,0.00,0.0,WeatherDisplay:10.37,2013-03-04 02:29:00,
2013-03-03 21:34:00,32.7,19.1,29.64,NNW,329,3.5,3.5,57,0.00,BKN,,0.00,0.0,WeatherDisplay:10.37,2013-03-04 02:34:00,
2013-03-03 21:39:00,32.7,19.1,29.64,North,359,5.8,5.8,57,0.00,BKN,,0.00,0.0,WeatherDisplay:10.37,2013-03-04 02:39:00,
2013-03-03 21:44:00,32.7,19.1,29.64,North,0,3.5,3.5,57,0.00,BKN,,0.00,0.0,WeatherDisplay:10.37,2013-03-04 02:44:00,
2013-03-03 21:49:00,32.7,19.1,29.64,NW,312,2.3,2.3,57,0.00,BKN,,0.00,0.0,WeatherDisplay:10.37,2013-03-04 02:49:00,
2013-03-03 21:54:00,32.7,19.1,29.64,NNW,340,4.6,4.6,57,0.00,BKN,,0.00,0.0,WeatherDisplay:10.37,2013-03-04 02:54:00,
2013-03-03 21:59:00,32.7,19.1,29.64,WNW,298,5.8,5.8,57,0.00,BKN,,0.00,0.0,WeatherDisplay:10.37,2013-03-04 02:59:00,
2013-03-03 22:04:00,32.7,19.1,29.64,NW,325,2.3,2.3,57,0.00,BKN,,0.00,0.0,WeatherDisplay:10.37,2013-03-04 03:04:00,
2013-03-03 22:09:00,32.8,19.2,29.64,NNW,339,8.1,8.1,57,0.00,BKN,,0.00,0.0,WeatherDisplay:10.37,2013-03-04 03:09:00,
2013-03-03 22:14:00,32.8,18.8,29.64,NW,326,8.1,8.1,56,0.00,BKN,,0.00,0.0,WeatherDisplay:10.37,2013-03-04 03:14:00,
2013-03-03 22:19:00,32.8,18.8,29.64,East,85,8.1,8.1,56,0.00,BKN,,0.00,0.0,WeatherDisplay:10.37,2013-03-04 03:19:00,
2013-03-03 22:24:00,32.9,18.9,29.64,NW,323,6.9,6.9,56,0.00,BKN,,0.00,0.0,WeatherDisplay:10.37,2013-03-04 03:24:00,
2013-03-03 22:29:00,32.9,18.9,29.64,North,0,6.9,6.9,56,0.00,BKN,,0.00,0.0,WeatherDisplay:10.37,2013-03-04 03:29:00,
2013-03-03 22:34:00,32.9,18.1,29.64,WSW,256,5.8,5.8,54,0.00,BKN,,0.00,0.0,WeatherDisplay:10.37,2013-03-04 03:34:00,
2013-03-03 22:39:00,32.9,17.6,29.64,NNW,343,8.1,8.1,53,0.00,BKN,,0.00,0.0,WeatherDisplay:10.37,2013-03-04 03:39:00,
2013-03-03 22:44:00,32.9,17.6,29.64,North,8,5.8,5.8,53,0.00,BKN,,0.00,0.0,WeatherDisplay:10.37,2013-03-04 03:44:00,
2013-03-03 22:49:00,32.9,17.6,29.64,NW,316,6.9,6.9,53,0.00,BKN,,0.00,0.0,WeatherDisplay:10.37,2013-03-04 03:49:00,
2013-03-03 22:54:00,32.9,17.2,29.64,SW,224,5.8,5.8,52,0.00,BKN,,0.00,0.0,WeatherDisplay:10.37,2013-03-04 03:54:00,
2013-03-03 22:59:00,32.9,17.2,29.65,NW,320,4.6,4.6,52,0.00,BKN,,0.00,0.0,WeatherDisplay:10.37,2013-03-04 03:59:00,
2013-03-03 23:04:00,32.8,17.1,29.65,NW,325,4.6,4.6,52,0.00,BKN,,0.00,0.0,WeatherDisplay:10.37,2013-03-04 04:04:00,
2013-03-03 23:09:00,32.8,17.5,29.65,WNW,301,3.5,3.5,53,0.00,BKN,,0.00,0.0,WeatherDisplay:10.37,2013-03-04 04:09:00,
2013-03-03 23:14:00,32.8,17.5,29.65,NW,315,5.8,5.8,53,0.00,BKN,,0.00,0.0,WeatherDisplay:10.37,2013-03-04 04:14:00,
2013-03-03 23:19:00,32.8,17.1,29.65,North,10,7.0,7.0,52,0.00,BKN,,0.00,0.0,WeatherDisplay:10.37,2013-03-04 04:19:00,
2013-03-03 23:24:00,32.8,17.1,29.65,North,0,5.8,5.8,52,0.00,BKN,,0.00,0.0,WeatherDisplay:10.37,2013-03-04 04:24:00,
2013-03-03 23:29:00,32.7,17.0,29.65,NW,312,8.1,8.1,52,0.00,BKN,,0.00,0.0,WeatherDisplay:10.37,2013-03-04 04:29:00,
2013-03-03 23:34:00,32.7,17.0,29.65,North,357,4.6,4.6,52,0.00,BKN,,0.00,0.0,WeatherDisplay:10.37,2013-03-04 04:34:00,
2013-03-03 23:39:00,32.7,17.0,29.65,West,280,8.1,8.1,52,0.00,BKN,,0.00,0.0,WeatherDisplay:10.37,2013-03-04 04:39:00,
2013-03-03 23:44:00,32.5,17.2,29.65,North,349,3.5,3.5,53,0.00,BKN,,0.00,0.0,WeatherDisplay:10.37,2013-03-04 04:44:00,
2013-03-03 23:49:00,32.5,17.2,29.65,North,353,11.5,11.5,53,0.00,BKN,,0.00,0.0,WeatherDisplay:10.37,2013-03-04 04:49:00,
2013-03-03 23:54:00,32.5,17.2,29.65,WNW,296,8.1,8.1,53,0.00,BKN,,0.00,0.0,WeatherDisplay:10.37,2013-03-04 04:54:00,
2013-03-03 23:59:00,32.4,17.2,29.65,NW,316,5.8,5.8,53,0.00,BKN,,0.00,0.0,WeatherDisplay:10.37,2013-03-04 04:59:00,